Date String (YYYY-MM-DD hh:mm:ss) UTC,Instrument flags,Ambient pressure (hPa),Sample flow (lpm),Bypass flow (lpm),Sample temperature (°C),Ambient temperature (°C),ASC tube jacket temperature (°C),LED temperature (°C),Box temperature (°C),Sample RH (%),Span deviation,Mass concentration (μg/m³),Mass concentration (μg/m³),Mass concentration (μg/m³)
DateTimeUTC,F1_M11,P_M11,Q1_M11,Q2_M11,T1_M11,T2_M11,T3_M11,T4_M11,T5_M11,U1_M11,ZSPAN_M11,X2_M11,X0_M11,X1_M11
2023-05-14 22:00:00,,0841.4,5.00,0.00,30.4,29.0,00.0,38.7,32.0,22.2,0000.0,0000.53,0000.85,0000.46
2023-05-14 22:01:00,,0841.4,5.00,0.00,30.4,29.0,00.0,38.7,32.0,22.7,0000.0,0000.50,0000.80,0000.43
2023-05-14 22:02:00,,0841.4,4.99,0.00,30.4,29.0,00.0,38.7,32.0,22.6,0000.0,0000.45,0000.73,0000.41
2023-05-14 22:03:00,,0841.4,5.02,0.00,30.4,29.0,00.0,38.7,32.0,22.8,0000.0,0000.45,0000.74,0000.40
2023-05-14 22:04:00,,0841.4,5.01,0.00,30.4,29.0,00.0,38.7,32.0,22.4,0000.0,0000.44,0000.79,0000.39
2023-05-14 22:05:00,,0841.4,4.99,0.00,30.5,29.0,00.0,38.8,32.0,22.6,0000.0,0000.43,0000.83,0000.38
2023-05-14 22:06:00,,0841.4,4.99,0.00,30.5,29.0,00.0,38.8,32.0,22.9,0000.0,0000.43,0000.82,0000.38
2023-05-14 22:07:00,,0841.4,5.00,0.00,30.5,29.1,00.0,38.8,32.0,22.7,0000.0,0000.45,0000.87,0000.39
2023-05-14 22:08:00,,0841.4,5.01,0.00,30.5,29.1,00.0,38.8,32.1,22.9,0000.0,0000.46,0000.89,0000.39
2023-05-14 22:09:00,,0841.4,5.00,0.00,30.5,29.1,00.0,38.8,32.1,23.2,0000.0,0000.48,0000.92,0000.40
2023-05-14 22:10:00,,0841.4,5.00,0.00,30.5,29.1,00.0,38.8,32.1,22.6,0000.0,0000.50,0000.81,0000.41
2023-05-14 22:11:00,,0841.4,4.99,0.00,30.5,29.1,00.0,38.8,32.1,22.8,0000.0,0000.51,0000.83,0000.42
2023-05-14 22:12:00,,0841.4,4.99,0.00,30.5,29.1,00.0,38.8,32.1,23.0,0000.0,0000.52,0000.85,0000.42
2023-05-14 22:13:00,,0841.5,5.01,0.00,30.5,29.1,00.0,38.8,32.1,23.0,0000.0,0000.54,0001.24,0000.44
2023-05-14 22:14:00,,0841.4,5.01,0.00,30.6,29.1,00.0,38.9,32.1,23.5,0000.0,0000.56,0001.56,0000.44
2023-05-14 22:15:00,,0841.5,5.00,0.00,30.6,29.1,00.0,38.9,32.1,23.7,0000.0,0000.56,0001.52,0000.45
2023-05-14 22:16:00,,0841.4,4.99,0.00,30.6,29.2,00.0,38.9,32.1,23.7,0000.0,0000.56,0001.48,0000.45
2023-05-14 22:17:00,,0841.4,4.99,0.00,30.6,29.2,00.0,38.9,32.1,23.2,0000.0,0000.57,0001.51,0000.45
2023-05-14 22:18:00,,0841.4,5.01,0.00,30.6,29.2,00.0,38.9,32.1,23.6,0000.0,0000.56,0001.51,0000.45
2023-05-14 22:19:00,,0841.5,5.00,0.00,30.6,29.2,00.0,38.9,32.2,23.5,0000.0,0000.56,0001.53,0000.44
2023-05-14 22:20:00,,0841.4,4.99,0.00,30.6,29.2,00.0,38.9,32.2,23.9,0000.0,0000.54,0001.49,0000.43
2023-05-14 22:21:00,,0841.4,5.01,0.00,30.6,29.2,00.0,38.9,32.2,23.2,0000.0,0000.53,0001.49,0000.42
2023-05-14 22:22:00,,0841.4,5.01,0.00,30.6,29.2,00.0,38.9,32.2,23.2,0000.0,0000.52,0001.47,0000.42
2023-05-14 22:23:00,,0841.4,5.00,0.00,30.7,29.2,00.0,39.0,32.2,23.0,0000.0,0000.51,0001.45,0000.42
2023-05-14 22:24:00,,0841.4,4.99,0.00,30.7,29.2,00.0,39.0,32.2,22.4,0000.0,0000.50,0001.19,0000.40
2023-05-14 22:25:00,,0841.5,5.01,0.00,30.7,29.2,00.0,39.0,32.2,22.3,0000.0,0000.50,0000.84,0000.40
2023-05-14 22:26:00,,0841.4,5.00,0.00,30.7,29.2,00.0,39.0,32.2,22.1,0000.0,0000.49,0000.81,0000.39
2023-05-14 22:27:00,,0841.4,4.98,0.00,30.7,29.2,00.0,39.0,32.2,22.3,0000.0,0000.50,0000.81,0000.38
2023-05-14 22:28:00,,0841.4,5.00,0.00,30.7,29.2,00.0,39.0,32.2,22.4,0000.0,0000.49,0000.77,0000.38
2023-05-14 22:29:00,,0841.4,5.01,0.00,30.7,29.2,00.0,39.0,32.2,22.6,0000.0,0000.49,0000.76,0000.38
2023-05-14 22:30:00,,0841.4,5.01,0.00,30.7,29.2,00.0,39.0,32.2,22.3,0000.0,0000.48,0000.71,0000.38
2023-05-14 22:31:00,,0841.4,4.99,0.00,30.7,29.2,00.0,39.0,32.2,22.3,0000.0,0000.49,0000.73,0000.39
2023-05-14 22:32:00,,0841.4,5.00,0.00,30.7,29.2,00.0,39.0,32.2,22.4,0000.0,0000.53,0000.78,0000.40
2023-05-14 22:33:00,,0841.4,5.00,0.00,30.7,29.2,00.0,39.0,32.2,22.4,0000.0,0000.54,0000.81,0000.40
2023-05-14 22:34:00,,0841.4,4.99,0.00,30.7,29.3,00.0,39.0,32.2,23.1,0000.0,0000.56,0000.84,0000.41
2023-05-14 22:35:00,,0841.4,5.00,0.00,30.7,29.3,00.0,39.0,32.3,23.0,0000.0,0000.58,0000.87,0000.42
2023-05-14 22:36:00,,0841.4,5.00,0.00,30.7,29.3,00.0,39.1,32.3,23.5,0000.0,0000.56,0000.80,0000.42
2023-05-14 22:37:00,,0841.4,5.00,0.00,30.7,29.3,00.0,39.1,32.3,23.9,0000.0,0000.56,0000.78,0000.43
2023-05-14 22:38:00,,0841.4,4.99,0.00,30.7,29.3,00.0,39.1,32.3,23.4,0000.0,0000.56,0000.78,0000.43
2023-05-14 22:39:00,,0841.5,4.99,0.00,30.7,29.3,00.0,39.1,32.3,23.5,0000.0,0000.59,0000.85,0000.44
2023-05-14 22:40:00,,0841.4,4.99,0.00,30.7,29.3,00.0,39.1,32.3,23.3,0000.0,0000.58,0000.87,0000.44
2023-05-14 22:41:00,,0841.4,5.00,0.00,30.7,29.3,00.0,39.1,32.3,23.2,0000.0,0000.58,0000.89,0000.44
2023-05-14 22:42:00,,0841.5,5.01,0.00,30.8,29.3,00.0,39.1,32.3,23.3,0000.0,0000.59,0001.27,0000.44
2023-05-14 22:43:00,,0841.5,5.00,0.00,30.8,29.3,00.0,39.1,32.3,23.7,0000.0,0000.56,0001.22,0000.43
2023-05-14 22:44:00,,0841.4,4.99,0.00,30.8,29.3,00.0,39.1,32.3,23.2,0000.0,0000.55,0001.20,0000.43
2023-05-14 22:45:00,,0841.5,5.00,0.00,30.8,29.3,00.0,39.1,32.3,23.3,0000.0,0000.53,0001.16,0000.42
2023-05-14 22:46:00,,0841.5,5.01,0.00,30.8,29.4,00.0,39.1,32.3,23.3,0000.0,0000.51,0001.14,0000.42
2023-05-14 22:47:00,,0841.5,4.99,0.00,30.8,29.4,00.0,39.1,32.3,23.0,0000.0,0000.52,0001.15,0000.42
2023-05-14 22:48:00,,0841.4,5.01,0.00,30.8,29.4,00.0,39.2,32.3,23.2,0000.0,0000.51,0001.13,0000.42
2023-05-14 22:49:00,,0841.5,5.01,0.00,30.8,29.4,00.0,39.2,32.4,23.2,0000.0,0000.49,0001.08,0000.41
2023-05-14 22:50:00,,0841.5,4.98,0.00,30.8,29.4,00.0,39.2,32.4,23.2,0000.0,0000.47,0001.03,0000.42
2023-05-14 22:51:00,,0841.5,5.01,0.00,30.8,29.4,00.0,39.2,32.4,23.3,0000.0,0000.49,0001.05,0000.42
2023-05-14 22:52:00,,0841.5,5.01,0.00,30.8,29.4,00.0,39.2,32.4,23.7,0000.0,0000.50,0001.09,0000.43
2023-05-14 22:53:00,,0841.5,5.01,0.00,30.9,29.4,00.0,39.2,32.4,23.4,0000.0,0000.51,0000.78,0000.43
2023-05-14 22:54:00,,0841.5,4.99,0.00,30.9,29.4,00.0,39.2,32.4,23.4,0000.0,0000.51,0000.79,0000.43
2023-05-14 22:55:00,,0841.5,4.99,0.00,30.9,29.4,00.0,39.2,32.4,23.3,0000.0,0000.50,0000.78,0000.43
2023-05-14 22:56:00,,0841.6,5.01,0.00,30.9,29.4,00.0,39.2,32.4,23.3,0000.0,0000.51,0000.79,0000.43
2023-05-14 22:57:00,,0841.6,5.01,0.00,30.9,29.4,00.0,39.2,32.4,23.8,0000.0,0000.52,0000.86,0000.43
2023-05-14 22:58:00,,0841.6,4.98,0.00,30.9,29.4,00.0,39.2,32.4,23.8,0000.0,0000.52,0000.91,0000.42
2023-05-14 22:59:00,,0841.6,4.99,0.00,30.9,29.4,00.0,39.2,32.4,25.2,0000.0,0000.55,0001.16,0000.45
